カタログに戻る

CZ-6A DEB

運用中SSO
NORAD 56618·DEBRIS·🇨🇳 China

打ち上げ Nov 11, 2022 から Taiyuan Satellite Launch Center

Loading…

次のパス (今後24時間)

TLE

最新Source: Space-Track

元期: Sep 13, 2026, 06:54 UTC

1 56618U 22151AES 26256.28750682  .00000228  00000-0  14930-3 0  9998
2 56618  98.8425 256.7057 0042448  83.0269 277.5727 14.11194225174544

AllMySatでCZ-6A DEBをリアルタイム追跡

Download on the App Store